www.pogodaiklimat.ru

Погода и климат >> Архив погоды >> Россия >> Красноярский край >> Игарка


АРХИВ ПОГОДЫ в Игарке

Время (UTC), дата Ветер
(напр.,м/с)
 
Видим.   Явления Облачность Т
(С)
Тd
(С)
f
(%)
Тe
(С)
Тes
(С)
Комфортность P
(гПа)
Po
(гПа)
Тmin
(С)
Tmax
(С)
R
(мм)
R24
(мм)
S
(см)
18 16.01 штиль 0 10 км слаб. снег 10/0
[As op]
-18.6 -19.8 90 -19 -19 1008.2 1004.4
21 16.01 ЮВ 1 10 км слаб. снег 10/0
[As op]
-18.3 -19.5 90 -21 -21 1009.2 1005.4
00 17.01 штиль 0 10 км слаб. снег 9/0
[Ac trans Cs]
-24.0 -25.9 84 -24 -24 1011.1 1007.2 -24.1 1 58
03 17.01 штиль 0 10 км {снег} 6/0
[Ac trans Ci fib]
-28.8 -31.2 80 -29 -29 1013.5 1009.5 -29.2
06 17.01 Ю 1 10 км слаб. снег 9/4 1000 м
[Sc Ac trans Cs]
-26.2 -28.1 84 -30 -30 1016.0 1012.1
09 17.01 Ю 2 10 км слаб. снег 9/0
[Ac trans Cs]
-26.3 -28.1 85 -33 -33 опасность
обморожения
1018.1 1014.2
12 17.01 ЮВ 1 10 км слаб. снег 9/0
[Ac trans Cs]
-25.8 -27.6 85 -29 -29 1019.3 1015.4 -23.8 0.3
15 17.01 ЮВ 2 10 км слаб. снег 9/6 600 м
[Sc As op]
-23.2 -25.0 85 -30 -30 1019.0 1015.1
18 17.01 ЮВ 4 10 км слаб. снег 9/6 300 м
[Sc As op]
-18.4 -19.6 90 -27 -27 1015.6 1011.8
21 17.01 ЮВ 6
{11}
2000 м снег {метель} 10/10 300 м
[Frnb Ns]
-15.0 -16.3 90 -25 -25 1011.4 1007.6
00 18.01 Ю 8
{14}
10 км слаб. снег {метель} 10/10 300 м
[Frnb Ns]
-12.8 -14.1 90 -23 -23 1008.4 1004.7 -26.0 3 58
03 18.01 Ю 7
{14}
10 км слаб. ливневой снег 10/10 300 м
[Cb cap]
-12.8 -14.1 90 -22 -22 1006.0 1002.3
06 18.01 Ю 7
{13}
10 км слаб. ливневой снег 9/6 600 м
[Cb cap Ac cuf]
-12.0 -13.3 90 -21 -21 1003.4 999.8
09 18.01 Ю 8
{14}
4000 м слаб. ливневой снег {метель} 9/8 600 м
[Cb cap Ac cuf]
-11.2 -12.5 90 -21 -21 1001.6 998.0
12 18.01 Ю 7
{14}
4000 м слаб. ливневой снег {метель} 9/6 600 м
[Cb cap Ac cuf]
-11.0 -12.3 90 -20 -20 1001.4 997.8 -10.8 2
15 18.01 Ю 7
{14}
10 км слаб. ливневой снег {метель} 9/6 300 м
[Cb cap Ac cuf]
-11.2 -12.5 90 -21 -21 1001.1 997.5
18 18.01 Ю 5
{11}
10 км слаб. ливневой снег {метель} 9/8 300 м
[Cb cap Ac cuf]
-11.6 -12.9 90 -20 -20 1001.6 998.0
21 18.01 Ю 5
{10}
10 км слаб. ливневой снег 9/8 300 м
[Cb cap Ac cuf]
-11.9 -13.2 90 -20 -20 1000.8 997.2
00 19.01 Ю 6
{11}
4000 м слаб. ливневой снег {метель} 10/9 300 м
[Cb cap]
-10.4 -11.7 90 -19 -19 999.4 995.8 -12.3 1 59
03 19.01 Ю 6
{11}
4000 м слаб. ливневой снег {метель} 9/9 600 м
[Cb cap]
-10.7 -12.0 90 -19 -19 997.9 994.3
06 19.01 Ю 7
{12}
4000 м слаб. ливневой снег {метель} 9/9 300 м
[Cb cap]
-11.2 -12.5 90 -21 -21 995.9 992.3
09 19.01 Ю 7
{11}
4000 м слаб. ливневой снег {метель} 9/9 600 м
[Cb cap]
-12.1 -13.4 90 -22 -22 994.4 990.8
12 19.01 Ю 6
{11}
4000 м слаб. снег 9/8 600 м
[Sc diur, vesp Ac As]
-12.2 -13.5 90 -21 -21 993.6 990.0 -10.2 3
15 19.01 Ю 2 10 км слаб. снег {метель} 9/4 1000 м
[Sc As op]
-14.0 -15.3 90 -19 -19 993.7 990.0
18 19.01 ЮЗ 2 10 км слаб. снег {метель} 9/3 1500 м
[Sc Ac trans Cs]
-13.1 -14.4 90 -18 -18 994.9 991.2
21 19.01 З 2 10 км слаб. снег 9/0
[Ac trans Cs]
-14.9 -16.9 85 -20 -20 998.3 994.6
00 20.01 ЮЗ 3 10 км слаб. снег 9/0
[Ac trans Cs]
-17.6 -19.5 85 -25 -25 1000.1 996.3 -17.7 0.7 57
03 20.01 ЮЗ 3 10 км в посл. час снег 9/0
[Ac trans Cs]
-18.8 -20.7 85 -26 -26 1001.4 997.6 -18.9
06 20.01 ЮЗ 1 20 км {снег} 9/0
[Ac trans Cs]
-21.6 -23.4 85 -25 -25 1002.3 998.5
09 20.01 Ю 1 10 км 9/0
[Cs]
-26.0 -28.4 80 -30 -30 1004.4 1000.5
12 20.01 штиль 0 10 км 9/0
[Cs]
-29.8 -32.8 75 -30 -30 1007.0 1003.1 -17.4 0.0
15 20.01 штиль 0 10 км 6/0
[Ci fib]
-32.0 -35.0 75 -32 -32 опасность
обморожения
1009.7 1005.7
18 20.01 Ю 1 10 км слаб. снег 9/0
[Cs]
-32.8 -35.8 74 -37 -37 опасность
обморожения
1012.8 1008.7
21 20.01 ЮЗ 1 10 км слаб. снег 9/0
[Cs]
-31.9 -35.0 74 -36 -36 опасность
обморожения
1016.0 1012.0
00 21.01 ЮВ 1 10 км слаб. снег 9/0
[Cs]
-33.5 -36.6 73 -38 -38 опасность
обморожения
1019.3 1015.2 -35.1 0.0 57
03 21.01 ЮВ 1 10 км {снег} 9/0
[Cs]
-31.5 -34.5 75 -36 -36 опасность
обморожения
1021.1 1017.1
06 21.01 Ю 2 20 км {снег} ясно -32.1 -35.0 75 -40 -40 опасность
обморожения
1022.4 1018.4
09 21.01 ЮВ 2 10 км 3/0
[Ci fib]
-32.9 -35.8 75 -41 -41 опасность
обморожения
1024.4 1020.3
12 21.01 В 2 10 км 9/0
[Cs]
-31.6 -34.5 75 -39 -39 опасность
обморожения
1024.1 1020.1 -31.3 0.3
15 21.01 СВ 1 10 км 9/0
[Cs]
-31.0 -33.4 79 -35 -35 опасность
обморожения
1022.4 1018.4
18 21.01 СВ 2 10 км 9/0
[Ac trans Cs]
-28.0 -30.5 79 -35 -35 опасность
обморожения
1020.5 1016.5
21 21.01 С 1 10 км 9/0
[Ac trans Cs]
-25.7 -28.1 80 -29 -29 1018.1 1014.2
00 22.01 В 3 10 км 9/0
[Ac trans Cs]
-20.8 -23.3 80 -29 -29 1014.7 1010.9 -31.6 57
03 22.01 ЮВ 5
{10}
10 км 9/0
[Ac trans Cs]
-15.1 -18.5 75 -24 -24 1012.4 1008.6
06 22.01 ЮВ 6
{12}
10 км слаб. снег {метель} 9/5 600 м
[Sc As op]
-16.9 -19.5 80 -27 -27 1011.6 1007.8
09 22.01 ЮВ 4
{10}
10 км в посл. час снег {метель} 9/0
[Ac trans Cs]
-17.1 -19.7 80 -25 -25 1012.3 1008.5
12 22.01 ЮВ 5
{10}
10 км слаб. снег {метель} 9/0
[Ac trans Cs]
-17.4 -20.0 80 -27 -27 1013.3 1009.5 -14.7 0.6
15 22.01 ЮВ 4 10 км слаб. снег 9/0
[Ac trans Cs]
-17.1 -19.7 80 -25 -25 1013.8 1010.0
18 22.01 ЮВ 4 10 км слаб. снег 9/0
[Ac trans Cs]
-17.4 -20.0 80 -26 -26 1014.7 1010.9
21 22.01 ЮВ 3 10 км слаб. снег 9/0
[Ac As]
-17.2 -19.1 85 -24 -24 1015.3 1011.5
00 23.01 ЮВ 3 10 км слаб. снег 10/0
[As op]
-17.9 -19.8 85 -25 -25 1015.7 1011.9 -17.9 0.7 57
03 23.01 ЮВ 2 10 км в посл. час снег 9/0
[Ac trans Cs]
-19.5 -21.4 85 -25 -25 1016.0 1012.2 -19.6
06 23.01 ЮВ 3 10 км слаб. снег 9/0
[Ac trans Cs]
-18.4 -21.0 80 -26 -26 1016.0 1012.2
09 23.01 ЮВ 2 4000 м слаб. снег 10/0
[As op]
-17.8 -19.7 85 -23 -23 1016.0 1012.2
12 23.01 В 1 10 км слаб. снег 9/0
[Ac trans Cs]
-19.6 -21.5 85 -23 -23 1015.8 1012.0 -17.6 0.8

 

Местоположение метеостанции Игарка (Красноярский край, Россия): широта 67.47 долгота 86.57 высота над уровнем моря 28 м.

В архиве по умолчанию представлена погода в Игарке за последнюю неделю. Архивные данные за месяц целиком и за предыдущие месяцы, начиная с января 2011 года, Вы можете получить, выбрав интересующий диапазон дат из раскрывающегося списка и нажав кнопку "Ввод!".


*Определитесь, кто Вы:
робот инопланетянин человек

Внимание! Время в таблицах - всемирное. Для получения местного времени необходимо прибавить поправку, которая равна 7 ч.

Смотрите также архив погоды в соседних городах и на ближайших метеорологических станциях:

Погода в Горбиачине (Красноярский край, Россия) (54 км)
Погода в Снежногорске (Красноярский край, Россия) (86 км)
Погода в Светлогорске (Красноярский край, Россия) (98 км)
Погода в Курейке (Красноярский край, Россия) (115 км)
Погода в Потапово (Красноярский край, Россия) (134 км)
Погода в Советской Речке (Красноярский край, Россия) (140 км)
Погода в Туруханске (Красноярский край, Россия) (197 км)
Погода в Норильске (Красноярский край, Россия) (219 км)
Погода в Большом Пороге (Эвенкия, Россия) (256 км)
Погода в Красноселькупске (Ямало-Ненецкий АО, Россия) (268 км)

Пояснения к столбцам:

Ветер - указаны скорость ветра в м/с - средняя за 10 мин, порывы в срок и между сроками (в фигурных скобках) и направление, откуда дует ветер: С - северный, СВ - северо-восточный, В - восточный, ЮВ - юго-восточный, Ю - южный, ЮЗ - юго-западный, З - западный, СЗ - северо-западный.
Видимость - горизонтальная дальность видимости в метрах или километрах. При видимости от 1 до 10 км при отсутствии осадков обычно наблюдается дымка, при ухудшении видимости до 1 км и менее - туман. В сухую погоду видимость может ухудшаться дымом, пылью или мглою.
Явления - указаны атмосферные явления, наблюдавшиеся в срок или в последний час перед сроком; фигурными скобками обозначены явления, наблюдавшиеся между сроками (за 1-3 часа до срока); квадратными скобками обозначены град или гололедные отложения с указанием их диаметра в мм.
Облачность - указаны через наклонную черту общая и нижняя облачность в баллах и высота нижней границы облаков в метрах; квадратными скобками обозначены формы облаков: Ci - перистые, Cs - перисто-слоистые, Cc - перисто-кучевые, Ac - высококучевые, As - высокослоистые, Sc - слоисто-кучевые, Ns - слоисто-дождевые, Cu - кучевые, Cb - кучево-дождевые. Подробнее классификацию облаков см. в Атласе облаков (PDF).
T - Температура воздуха - температура, измеренная на высоте 2 м над землей.
Td - Температура точки росы - температура, при понижении до которой содержащийся в воздухе водяной пар достигнет насыщения.
f - Относительная влажность воздуха - влажноcть воздуха, измеренная на высоте 2 м над землей.
Te - Эффективная температура - температура, которую ощущает одетый по сезону человек в тени. Характеристика душности погоды. При расчете учитывается влияние влажности воздуха и скорости ветра на теплоощущения человека.
Tes - Эффективная температура на солнце - температура, которую ощущает человек, с поправкой на солнечный нагрев. Характеристика знойности погоды. Зависит от высоты солнца над горизонтом, облачности и скорости ветра. Ночью, в пасмурную погоду, а также при ветре 12 м/с и более поправка равна нулю.
P - Атмосферное давление - приведенное к уровню моря атмосферное давление.
Po - Атмосферное давление - измеренное на уровне метеостанции атмосферное давление.
Tmin - Минимальная температура - минимум температуры воздуха на высоте 2 м над землей.
Tmax - Максимальная температура - максимум температуры воздуха на высоте 2 м над землей.
R - Количество осадков - Количество выпавших осадков за период времени, мм. При наведении курсора мыши на число - период времени, за который выпало указанное количество осадков.
R24 - Количество осадков - Количество выпавших осадков за 24 часа, мм.
S - Снежный покров - Высота снежного покрова, см. При наведении курсора мыши на число - состояние снежного покрова и степень покрытия местности в баллах.